Regional Weather Roundup
Issued by NWS Wakefield, VA

Home | Current Version | Previous Version | Graphics & Text | Print | Product List | Glossary On
Versions: 1 2 3 4 5 6 7 8 9 10 11 12 13 14 15 16 17 18 19 20 21 22 23 24 25 26 27 28 29 30 31 32 33 34 35 36 37 38 39 40 41 42 43 44 45 46 47 48 49 50
000
ASUS41 KAKQ 060314
RWRAKQ

REGIONAL WEATHER ROUNDUP
NATIONAL WEATHER SERVICE WAKEFIELD VA
1100 PM EDT TUE MAY 05 2015

Note: "fair" indicates few or no clouds below 12,000 feet with no
significant weather and/or obstructions to visibility. * = Denotes
station may not report precipitation (e.g., rain,snow,etc.),
thunder or fog.

VAZ042-051-052>054-056-060400-
NORTHERN VIRGINIA

CITY           SKY/WX    TMP DP  RH WIND       PRES   REMARKS
WASH NATIONAL  MOCLDY    68  62  81 SW7       30.25S
DULLES         PTCLDY    65  62  90 S7        30.25S
FORT BELVOIR   PTCLDY    63  61  94 CALM      30.24F FOG
QUANTICO       MOCLDY    66  62  87 CALM      30.26S
FREDERICKSBRG* MOCLDY    66  66 100 S5        30.25S FOG
STAFFORD*      MOCLDY    64  32  30 S5        30.29F
WARRENTON      MOCLDY    64  64  98 CALM      30.25S
CULPEPER*      CLOUDY    64  63  97 CALM      30.27R
MANASSAS*      MOCLDY    64  63  94 CALM      30.26
LEESBURG*      CLOUDY    66  64  94 S5        30.26S
WINCHESTER     MOCLDY    64  57  77 S3        30.25S
FRONT ROYAL*   FAIR      63  61  94 CALM      30.24S
LURAY*         CLOUDY    63  63 100 CALM      30.26S FOG
$$

VAZ048-049-060>072-079>083-060400-
CENTRAL AND SOUTH CENTRAL VIRGINIA

CITY           SKY/WX    TMP DP  RH WIND       PRES   REMARKS
RICHMOND       RAIN      68  65  90 SE7       30.27F
CHESTERFIELD*  CLOUDY    72  55  56 SE6       30.29F
PETERSBURG*    CLOUDY    73  56  55 CALM      30.29S
HANOVER        LGT RAIN  67  64  90 CALM      30.28F
TAPPAHANNOCK*  CLOUDY    66  62  87 CALM      30.27F FOG
QUINTON*       CLOUDY    70  62  77 CALM      30.28F
CHARLOTTSVILLE MOCLDY    65  62  90 CALM      30.27R
GORDONSVILLE*  MOCLDY    63  63  99 CALM      30.26S
ORANGE*        CLOUDY    64  63  94 CALM      30.28R
LOUISA*        CLOUDY    64  63  94 E3        30.26R
BUMPASS*       CLOUDY    64  63  96 CALM      30.27S
FARMVILLE*     LGT RAIN  70  62  76 W3        30.27R
CREWE*         MOCLDY    68  59  73 CALM      30.28R
FORT PICKETT*  FAIR      65  58  77 NE6       30.28R
CHASE CITY*    MOCLDY    69  60  73 CALM      30.27R
CLARKSVILLE*   FAIR      64  55  72 S6        30.26S
SOUTH HILL*    PTCLDY    65  55  67 S8        30.34R
LAWRENCEVILLE* MOCLDY    67  56  69 CALM      30.28R
EMPORIA*       CLEAR     64  52  63 CALM      30.30S
$$

VAZ088>098-060400-
SOUTHEAST VIRGINIA

CITY           SKY/WX    TMP DP  RH WIND       PRES   REMARKS
NORFOLK        PTCLDY    68  48  48 S14       30.29R
VIRGINIA BEACH MOCLDY    71  51  49 SW7       30.30R
NORFOLK NAVAL  MOCLDY    73  51  46 S8        30.30S
WEST POINT*    PTCLDY    70  60  71 CALM      30.29F
SALUDA*        FAIR      68  60  77 CALM      30.26F
NEWPORT NEWS   CLEAR     72  52  49 S9        30.29R
LANGLEY AFB    CLEAR     69  52  55 S13       30.27S
FORT EUSTIS    CLEAR     69  54  60 S6        30.27S
WILLIAMSBURG*  CLEAR     70  57  64 NW5       30.31R
HR EXEC AP*    FAIR      66  50  55 S6        30.31S
FRANKLIN*      CLEAR     65  53  65 SE5       30.31R
WAKEFIELD      CLEAR     68  54  60 S6        30.28S
$$

VAZ020-022-025-037-045-060400-
WEST CENTRAL AND SOUTHWEST VIRGINIA

CITY           SKY/WX    TMP DP  RH WIND       PRES   REMARKS
STAUNTON*      CLOUDY    63  58  86 CALM      30.29R
WAYNESBORO*    MOCLDY    67  57  69 SE7       30.28S
HOT SPRINGS VA CLEAR     64  47  53 SE5       30.35S
LYNCHBURG      PTCLDY    66  58  75 SW3       30.27R
DANVILLE       MOCLDY    70  55  59 S5        30.26R
SOUTH BOSTON*  CLOUDY    68  56  65 CALM      30.25F
MARTINSVILLE   CLOUDY    61  61 100 CALM      30.29R
ROANOKE        CLOUDY    69  54  58 NW3       30.27R
BLACKSBURG     PTCLDY    62  54  75 CALM      30.33R
DUBLIN*        CLEAR     64  55  73 CALM      30.31S
MARION*        PTCLDY    63  54  72 CALM      30.34S
HILLSVILLE*    PTCLDY    64  53  67 S6        30.33R
RICHLANDS*     FAIR      68  51  53 SW3       30.31S
WISE*          CLEAR     64  46  52 CALM      30.32S
ABINGDON*      PTCLDY    66  55  68 CALM      30.29R
$$

MDZ021>025-VAZ099-100-060400-
SOUTHERN MARYLAND AND THE DELMARVA PENINSULA

CITY           SKY/WX    TMP DP  RH WIND       PRES   REMARKS
PATUXENT RIVER CLOUDY    66  61  84 W8        30.24S
BAY BRIDGE APT   N/A    N/A N/A N/A W7        30.23S
LEONARDTOWN    CLOUDY    64  61  88 SW5       30.26S
DOVER          MOCLDY    69  66  90 W3        30.18F
GEORGETOWN     PTCLDY    68  58  70 S10       30.22S
EASTON         CLOUDY    67  66  94 SW5       30.26S
CAMBRIDGE      CLOUDY    70  61  73 W5        30.22S
SALISBURY      PTCLDY    67  56  67 S10       30.22F
OCEAN CITY     PTCLDY    67  55  65 SW13      30.24S
WALLOPS ISLAND CLEAR     65  56  72 SW8       30.26R
ACCOMACK*      CLEAR     64  57  77 W5        30.28S
$$

NCZ012>017-030>032-060400-
NORTH CENTRAL AND EASTERN NORTH CAROLINA

CITY           SKY/WX    TMP DP  RH WIND       PRES   REMARKS
ROANOKE RAPIDS FAIR      64  50  59 S5        30.29R
RALEIGH        PTCLDY    68  51  54 S7        30.29R
ELIZABETH CITY MOCLDY    64  53  67 S6        30.31R
AHOSKIE*       CLEAR     64  51  62 CALM      30.30S
EDENTON*       MOCLDY    64  55  73 S7        30.31R
CURRITUCK*     MOCLDY    65  52  63 CALM      30.31S
KILL DEVIL HLS MOCLDY    66  58  76 CALM      30.30S
MANTEO         MOCLDY    65  60  84 S3        30.32R
CAPE HATTERAS  PTCLDY    65  56  72 S7        30.31S
TARBORO*       FAIR      66  52  60 S3        30.30S
GOLDSBORO      MOCLDY    63  53  68 CALM      30.27S
WASHINGTON     PTCLDY    62  52  71 CALM      30.31S
GREENVILLE     PTCLDY    63  52  67 CALM      30.30F
NEW BERN       PTCLDY    58  52  80 CALM      30.32R
WILMINGTON     PTCLDY    59  55  87 NE3       30.28F
$$

VAZ048-060400-
ELSEWHERE

CITY           SKY/WX    TMP DP  RH WIND       PRES   REMARKS
HARRISBURG PA  CLOUDY    69  62  78 N5        30.21S
BALTIMORE      PTCLDY    65  62  90 W3        30.22S
ANNAPOLIS      CLOUDY    67  62  84 VRB5      30.22S
ANDREWS AFB    PTCLDY    64  63  98 S5        30.23F
PHILADELPHIA   CLOUDY    75  58  55 SW7       30.21R
HENDERSON NC   PTCLDY    67  50  54 S7        30.28R
GREENSBORO     PTCLDY    68  54  60 S5        30.27R
ROCKY MOUNT    MOCLDY    65  51  60 S3        30.29R
$$

VAZ100-060400-
MARINE

STATION/POSITION TIME  TEMP    WIND        PRES    WAVE   SWELL
                       AIR SEA DIR/SP/G            HT/PER HT/PER
                 (UTC) (F)     (DEG/KT/KT) (MB)    (FT/S) (FT/S)
BRANDYWINE LGT   0200   69 56  210/ 11/ 12 1023.0R
CAPE MAY NJ      0200   66 63  170/  6/  9 1022.7R
LEWES DE         0200   71 60  220/  6/ 10 1022.9R
15NM E FENWICK I 0250   58 54              1023.3F   3/ 5
OCEAN-CITY-INLET 0200   56 52  210/ 10/ 12 1023.7R
WACHAPREAGUE VA  0200   67 69  220/  8/ 12 1025.0R
THOMAS POINT MD  0300   66 63  260/ 11/ 12 1024.0F
GOOSES REEF MD   0300   63 61                N/A     1/ 2
COVE POINT MD    0200   67     270/ 11/ 13 1024.7R
SOLOMONS ISLAND  0200      63                N/A
BISHOPS HEAD MD  0200   70 72  290/  5/ 10 1023.9R
PINEY POINT MD   0200          310/  5/  6   N/A
CAMBRIDGE MD     0200   69 63  220/  6/  9 1023.3F
LEWISETTA VA     0200   70 66              1024.3S
RAPPAHANNOCK LGT 0200          190/ 15/ 16 1025.4R
YORK RVR RNG VA  0200   70     210/ 12/ 16 1024.6R
YORKTOWN VA      0200   72 62  210/  7/ 11 1024.9R
JAMESTOWN VA     0300   70 67   10/  4/  8 1025.0R
DOMINION TERM VA 0200   69     200/ 12/ 13 1025.5R
KIPTOPEKE VA     0200      68  200/  7/ 10   N/A
CHES BAY BRIDGE  0200   71 60  180/ 15/ 18 1025.1R
CAPE HENRY VA    0200   70     190/  9/ 15 1024.4R
CHESAPEAKE LGHT  0200   65     200/ 21/ 22 1025.9R
WILLOUBY STN VA  0200   71     200/ 14/ 16 1026.1R
S CRANEY ISL VA  0200          190/  9/ 13 1025.6R
CAPE HENRY BUOY  0228      62                N/A     2/ 4
1ST LANDING BUOY 0300      62                N/A     2/ 3
CAPE CHARLES BUO 0226      58                N/A     2/11   2/11
OFFSHORE WE BUOY 0211      54                N/A     3/ 4   2/11
64NM E OF VA BCH 0250   62 61  220/  8/  8 1026.0R   2/11   2/11
DUCK PIER NC     0200   68 52  180/ 10/ 12 1025.0R
44056 DUCK FRF   0211      55                N/A     1/11
OREGON INLET NC  0200   69 72  180/  9/ 12 1026.3R
HATTERAS NC      0200   69 69  160/  6/  9 1025.8S
DIAMOND SHLS NC  0250   71 75  160/ 12/ 14 1026.1F   3/11   2/11
CAPE LOOKOUT NC  0300   68     130/  4/  4 1025.8R
$$


USA.gov is the U.S. government's official web portal to all federal, state and local government web resources and services.